Weather History for Sheridan, WY

Change the Weather History Date:

Monday, October 8, 2012

  Actual Average Record
Temperature  
Mean Temperature 46 °F 48 °F  
Max Temperature 56 °F 63 °F 85 °F (1980)
Min Temperature 35 °F 34 °F 17 °F (2000)
Degree Days  
Heating Degree Days 19 17  
Month to date heating degree days 160 123  
Since 1 July heating degree days 310 426  
Cooling Degree Days 0 0  
Month to date cooling degree days 0 0  
Year to date cooling degree days 664 418  
Moisture  
Dew Point 34 °F    
Average Humidity 67    
Maximum Humidity 92    
Minimum Humidity 41    
Precipitation  
Precipitation 0.01 in 0.05 in 1.02 in (1993)
Month to date precipitation 0.48 0.45  
Year to date precipitation 7.47 11.93  
Sea Level Pressure  
Sea Level Pressure 29.93 in    
Wind  
Wind Speed 9 mph (NW)    
Max Wind Speed 18 mph    
Max Gust Speed 25 mph    
Visibility 10 miles    
Events Rain    
T = Trace of Precipitation, MM = Missing Value Source: NWS Daily Summary

Daily Weather History Graph

Daily Weather History Graph

Search for Another Location

Airport:

Trip Planner

Search our weather history database for the weather conditions in past years. The results will help you decide how hot, cold, wet, or windy it might be!

Date:

Astronomy

Oct. 08, 2012 Rise Set
Actual Time 7:15 AM MDT 6:34 PM MDT
Civil Twilight 6:45 AM MDT 7:03 PM MDT
Nautical Twilight 6:12 AM MDT 7:37 PM MDT
Astronomical Twilight 5:37 AM MDT 8:11 PM MDT
Moon No Moon Rise 2:41 PM MDT (10/8)
Length of Visible Light 12h 17m
Length of Day
11h 19m
Last Quarter, 46% of the Moon is Illuminated
Oct 8
Last Quarter
Oct 15
New
Oct 21
First Quarter
Oct 29
Full
Nov 6
Last Quarter

Hourly Weather History & Observations

Time (MDT) Temp. Windchill Dew Point Humidity Pressure Visibility Wind Dir Wind Speed Gust Speed Precip Events Conditions
12:53 AM 45.0 °F 40.1 °F 28.0 °F 52% 29.89 in 10.0 mi West 9.2 mph - N/A   Clear
1:53 AM 43.0 °F - 28.0 °F 56% 29.89 in 10.0 mi Calm Calm - N/A   Clear
2:53 AM 41.0 °F 39.0 °F 27.0 °F 57% 29.88 in 10.0 mi ESE 3.5 mph - N/A   Clear
3:53 AM 37.0 °F 32.4 °F 28.0 °F 70% 29.88 in 10.0 mi WNW 5.8 mph - N/A   Clear
4:53 AM 42.1 °F 40.2 °F 27.0 °F 55% 29.88 in 10.0 mi SE 3.5 mph - N/A   Clear
5:53 AM 44.1 °F 38.6 °F 28.0 °F 53% 29.87 in 10.0 mi West 10.4 mph - N/A   Clear
6:53 AM 42.1 °F 37.1 °F 27.0 °F 55% 29.91 in 10.0 mi NNE 8.1 mph - N/A   Clear
7:53 AM 44.1 °F 42.5 °F 27.0 °F 51% 29.92 in 10.0 mi West 3.5 mph - N/A   Clear
8:53 AM 46.9 °F - 30.9 °F 54% 29.93 in 10.0 mi NW 3.5 mph - N/A   Clear
9:53 AM 50.0 °F - 28.9 °F 44% 29.92 in 10.0 mi NNW 12.7 mph - N/A   Clear
10:53 AM 54.0 °F - 30.9 °F 41% 29.91 in 10.0 mi North 15.0 mph - N/A   Clear
11:53 AM 54.0 °F - 34.0 °F 47% 29.90 in 10.0 mi NNW 6.9 mph - N/A   Clear
12:53 PM 53.1 °F - 36.0 °F 52% 29.90 in 10.0 mi NW 11.5 mph - N/A   Mostly Cloudy
1:53 PM 53.1 °F - 37.0 °F 55% 29.89 in 10.0 mi NNW 9.2 mph - N/A   Overcast
2:53 PM 52.0 °F - 37.9 °F 59% 29.89 in 10.0 mi NNW 10.4 mph - N/A   Overcast
3:53 PM 51.1 °F - 39.0 °F 63% 29.91 in 10.0 mi NNW 10.4 mph - N/A   Overcast
4:53 PM 50.0 °F - 39.0 °F 66% 29.91 in 10.0 mi NW 11.5 mph - N/A   Overcast
5:53 PM 48.0 °F - 39.0 °F 71% 29.93 in 10.0 mi North 11.5 mph - N/A   Overcast
6:53 PM 46.0 °F 41.0 °F 39.9 °F 79% 29.96 in 10.0 mi NNW 10.4 mph - N/A   Overcast
7:53 PM 42.8 °F 37.5 °F 39.2 °F 87% 29.96 in 10.0 mi NW 9.2 mph - N/A   Overcast
8:53 PM 42.1 °F 35.7 °F 39.0 °F 89% 29.99 in 10.0 mi NW 11.5 mph - 0.00 in   Overcast
9:53 PM 41.0 °F 34.3 °F 37.9 °F 89% 30.01 in 10.0 mi NW 11.5 mph - N/A   Overcast
10:53 PM 39.0 °F 31.4 °F 37.0 °F 93% 30.03 in 10.0 mi NW 12.7 mph - 0.01 in   Overcast
11:15 PM 39.2 °F 31.6 °F 37.4 °F 93% 30.02 in 10.0 mi NW 12.7 mph - 0.00 in Rain Light Rain
11:53 PM 37.9 °F 31.5 °F 36.0 °F 93% 30.06 in 10.0 mi NW 9.2 mph - 0.00 in   Overcast